This is the latest recevied weather packets stored in our database for station/object HP1MRA-15. If no packets are shown the sender has not sent any weather packets the latest 10 day(s).
| Time | Temp. | Humidity | Pressure | Rain* | Wind** | Luminosity | Snow |
|---|---|---|---|---|---|---|---|
| 1778263919 | 37.22° C | 43% | 1000.2 hPa | 0 mm | - | - | - |
| 1778263620 | 37.22° C | 43% | 1000.3 hPa | 0 mm | - | - | - |
| 1778263320 | 37.22° C | 43% | 1000.4 hPa | 0 mm | - | - | - |
| 1778263019 | 37.22° C | 43% | 1000.4 hPa | 0 mm | - | - | - |
| 1778262720 | 37.22° C | 44% | 1000.4 hPa | 0 mm | - | - | - |
| 1778262419 | 37.22° C | 45% | 1000.5 hPa | 0 mm | - | - | - |
| 1778262119 | 37.22° C | 44% | 1000.5 hPa | 0 mm | - | - | - |
| 1778261820 | 37.22° C | 46% | 1000.7 hPa | 0 mm | - | - | - |
| 1778261519 | 37.22° C | 46% | 1000.8 hPa | 0 mm | - | - | - |
| 1778261220 | 37.22° C | 46% | 1000.9 hPa | 0 mm | - | - | - |
| 1778260919 | 37.22° C | 46% | 1000.8 hPa | 0 mm | - | - | - |
| 1778260619 | 37.22° C | 48% | 1000.9 hPa | 0 mm | - | - | - |
| 1778260319 | 36.67° C | 50% | 1001.1 hPa | 0 mm | - | - | - |
| 1778260019 | 36.67° C | 50% | 1001.3 hPa | 0 mm | - | - | - |
| 1778259719 | 36.67° C | 53% | 1001.3 hPa | 0 mm | - | - | - |
| 1778259419 | 36.11° C | 52% | 1001.4 hPa | 0 mm | - | - | - |
| 1778259119 | 36.11° C | 54% | 1001.5 hPa | 0 mm | - | - | - |
| 1778258819 | 35.56° C | 54% | 1001.6 hPa | 0 mm | - | - | - |
| 1778258519 | 35.56° C | 55% | 1001.6 hPa | 0 mm | - | - | - |
| 1778258218 | 35.56° C | 53% | 1001.7 hPa | 0 mm | - | - | - |
| 1778257919 | 35.56° C | 53% | 1001.7 hPa | 0 mm | - | - | - |
| 1778257619 | 36.11° C | 53% | 1001.8 hPa | 0 mm | - | - | - |
| 1778257319 | 36.67° C | 52% | 1001.8 hPa | 0 mm | - | - | - |
| 1778257019 | 36.67° C | 52% | 1001.8 hPa | 0 mm | - | - | - |
| 1778256719 | 35.56° C | 55% | 1001.8 hPa | 0 mm | - | - | - |
* Rain latest hour (hover to see other rain measurements)
** Current wind speed in m/s (hover to see current wind gust speed)